K8FJG-13 Weather Reports


time (UTC)temp
F
wind
direction
speed
knots
gust
knots
rain 1hr
in
rain 24hr
in
rain mn
in
humidity
%
barometer
mb
20260503233535 56 271 1.7 2.6 0.00 0.00 0.00 48 967.3
20260503232532 56 257 1.7 2.6 0.00 0.00 0.00 47 967.4
20260503231529 57 235 2.6 2.6 0.00 0.00 0.00 48 967.3
20260503230526 57 262 2.6 2.6 0.00 0.00 0.00 46 967.3
20260503225523 57 291 2.6 4.3 0.00 0.00 0.00 46 967.3
20260503224519 58 234 1.7 2.6 0.00 0.00 0.00 46 967.4
20260503223516 58 289 2.6 5.2 0.00 0.00 0.00 45 967.4
20260503222513 58 242 1.7 3.5 0.00 0.00 0.00 46 967.6
20260503221510 58 210 3.5 7.8 0.00 0.00 0.00 46 967.6
20260503220507 58 201 1.7 3.5 0.00 0.00 0.00 46 967.6
20260503215504 58 212 3.5 5.2 0.00 0.00 0.00 46 967.6
20260503214501 58 186 1.7 4.3 0.00 0.00 0.00 44 967.6
20260503213458 58 252 0.9 3.5 0.00 0.00 0.00 45 967.6
20260503212455 58 251 1.7 3.5 0.00 0.00 0.00 45 967.5
20260503211452 58 290 2.6 6.1 0.00 0.00 0.00 44 967.5
20260503210448 59 32 2.6 6.1 0.00 0.00 0.00 45 967.3
20260503205445 59 246 2.6 4.3 0.00 0.00 0.00 45 967.5
20260503204442 60 236 4.3 8.7 0.00 0.00 0.00 44 967.6
20260503203439 60 206 2.6 5.2 0.00 0.00 0.00 45 967.6
20260503202436 61 238 3.5 7.8 0.00 0.00 0.00 44 967.7
20260503201433 60 269 1.7 3.5 0.00 0.00 0.00 44 967.8
20260503200430 60 270 1.7 3.5 0.00 0.00 0.00 44 968.0
20260503195427 59 189 2.6 6.1 0.00 0.00 0.00 43 968.1
20260503194424 59 241 4.3 7.0 0.00 0.00 0.00 43 968.3
20260503193420 59 268 2.6 5.2 0.00 0.00 0.00 44 968.3
20260503192417 59 189 3.5 7.0 0.00 0.00 0.00 43 968.4
20260503191414 60 19 2.6 8.7 0.00 0.00 0.00 43 968.6
20260503190411 61 205 3.5 7.8 0.00 0.00 0.00 42 968.7
20260503185408 60 266 2.6 3.5 0.00 0.00 0.00 43 969.0
20260503184405 60 284 2.6 5.2 0.00 0.00 0.00 45 968.9
20260503183401 60 224 3.5 5.2 0.00 0.00 0.00 42 969.0
20260503182358 60 150 1.7 4.3 0.00 0.00 0.00 44 968.9
20260503181355 60 254 2.6 5.2 0.00 0.00 0.00 44 969.2
20260503180352 59 267 2.6 3.5 0.00 0.00 0.00 44 969.3
20260503175349 58 197 2.6 5.2 0.00 0.00 0.00 45 969.4
20260503174345 59 295 4.3 6.1 0.00 0.00 0.00 44 969.5
20260503173342 59 243 2.6 6.1 0.00 0.00 0.00 45 969.6
20260503172339 59 258 2.6 4.3 0.00 0.00 0.00 44 969.7
20260503171336 59 276 4.3 7.8 0.00 0.00 0.00 44 969.8
20260503170333 58 243 3.5 7.0 0.00 0.00 0.00 43 969.9
20260503150255 53 288 2.6 5.2 0.00 0.00 0.00 48 970.8
20260503140237 49 167 2.6 5.2 0.00 0.00 0.00 51 971.1
20260503131221 46 252 0.9 2.6 0.00 0.00 0.00 57 971.5
20260503130218 44 231 1.7 6.1 0.00 0.00 0.00 59 971.5
20260503120159 37 215 0.9 1.7 0.00 0.00 0.00 80 971.3
20260503110140 31 147 0.9 1.7 0.00 0.00 0.00 94 970.7
20260503100122 30 162 0.9 0.9 0.00 0.00 0.00 94 970.3
20260503081047 32 196 0.9 1.7 0.00 0.00 0.00 93 970.6
20260503072032 32 173 0.9 0.9 0.00 0.00 0.00 92 970.7
20260503071029 32 181 0.9 0.9 0.00 0.00 0.00 91 970.6
20260503055004 32 174 0.0 0.9 0.00 0.00 0.00 91 971.1
20260503054001 33 135 0.9 0.9 0.00 0.00 0.00 90 971.1
20260503052958 33 173 0.9 0.9 0.00 0.00 0.00 90 971.1
20260503051955 33 0 0.0 0.0 0.00 0.00 0.00 89 971.2
20260503050951 33 241 0.9 0.9 0.00 0.00 0.00 89 971.2
20260503045948 34 208 0.9 0.9 0.00 0.00 0.00 88 971.3
20260503044945 34 211 0.0 0.0 0.00 0.00 0.00 87 971.4
20260503043942 35 227 0.9 0.9 0.00 0.00 0.00 86 971.4
20260503042939 35 246 0.0 0.9 0.00 0.00 0.00 84 971.4
20260503041936 36 0 0.0 0.0 0.00 0.00 0.00 83 971.4
20260503040933 37 157 0.0 0.0 0.00 0.00 0.00 83 971.4
20260503035930 37 0 0.0 0.0 0.00 0.00 0.00 82 971.5
20260503034927 38 210 0.0 0.9 0.00 0.00 0.00 82 971.5
20260503033923 38 226 0.9 0.9 0.00 0.00 0.00 81 971.5
20260503032920 38 192 0.0 0.9 0.00 0.00 0.00 80 971.5
20260503031917 38 217 0.9 0.9 0.00 0.00 0.00 79 971.6
20260503030914 38 217 0.0 0.0 0.00 0.00 0.00 79 971.6
20260503025911 38 194 0.0 0.9 0.00 0.00 0.00 78 971.7
20260503024908 38 0 0.0 0.0 0.00 0.00 0.00 77 971.7
20260503023904 38 0 0.0 0.0 0.00 0.00 0.00 79 971.9
20260503022901 38 168 0.0 0.0 0.00 0.00 0.00 79 972.0
20260503021858 38 0 0.0 0.0 0.00 0.00 0.00 80 971.9
20260503020855 38 0 0.0 0.0 0.00 0.00 0.00 78 971.9
20260503015852 38 236 0.0 0.0 0.00 0.00 0.00 77 971.9
20260503014849 38 219 0.0 0.0 0.00 0.00 0.00 77 971.9
20260503013846 38 229 0.0 0.9 0.00 0.00 0.00 75 971.9
20260503012843 39 0 0.0 0.0 0.00 0.00 0.00 74 971.9
20260503011840 39 0 0.0 0.0 0.00 0.00 0.00 73 971.9
20260503010837 39 227 0.0 0.0 0.00 0.00 0.00 72 971.9
20260503005833 39 243 0.0 0.9 0.00 0.00 0.00 72 971.8
20260503004830 39 255 0.0 0.9 0.00 0.00 0.00 72 971.8
20260503003827 40 67 0.0 0.0 0.00 0.00 0.00 70 971.8
20260503002824 40 276 0.0 0.9 0.00 0.00 0.00 68 971.8
20260503001821 40 172 0.0 0.9 0.00 0.00 0.00 68 971.8
20260503000818 40 261 0.9 0.9 0.00 0.00 0.00 66 971.8
20260502235815 40 237 0.9 0.9 0.00 0.00 0.00 65 971.7
20260502234811 41 268 1.7 1.7 0.00 0.00 0.00 64 971.7